* Astronomy

Members Login
Username 
 
Password 
    Remember Me  
Post Info TOPIC: Asteroid 2011 BT59


L

Posts: 131433
Date:
Asteroid 2011 BT59
Permalink  
 


Orbital elements:
2011 BT59 PHA, Earth MOID = 0.0207 AU
Epoch 2011 Feb. 8.0 TT = JDT 2455600.5 MPC
M 18.71011 (2000.0) P Q
n 0.25960463 Peri. 302.31900 +0.95145488 +0.30519816
a 2.4336667 Node 39.95072 -0.25740200 +0.85998116
e 0.9456673 Incl. 3.55765 -0.16875371 +0.40900670
P 3.80 H 21.0 G 0.15 U 7

MPEC 2011 - D02


__________________
Page 1 of 1  sorted by
 
Quick Reply

Please log in to post quick replies.



Create your own FREE Forum
Report Abuse
Powered by ActiveBoard